Content
SEND FEEDBACK

Daily
Averages
Monthly
Summary
United States of America

TAMUNING, GUAM


Home > North America > United States > Guam
Elevation: 76 meters     Latitude: 13 29N     Longitude: 144 47E

WEATHER
 
SELECT A DAY
Number of Records: 341,524;   Date Range: 1/1/95 - 7/7/14
 
SHARE

PRINT THIS DATA

[ ← Previous Day ]
WEATHER ALMANAC - 1 JANUARY, 2013
[ Next Day → ]
[ °F ]   °C
Weather ElementAverageHighLow
Temperature26.7 °C29 °C (3:34 pm)25 °C (3:25 am)
Dewpoint25 °C26 °C (9:36 am)24 °C (12:41 am)
Humidity90.3 %94 % (12:16 am)79 % (3:34 pm)
Barometer1010.2 hPa1011.9 hPa (9:55 pm)1008.1 hPa (3:11 am)
Wind Speed28.8 km/h42.6 km/h (4:32 am)
Wind Gust53.8 km/h (9:59 am)
Weather ElementAverage
Visibility13.2 km
Wind DirectionENE (70.5 °)

Weather ElementTotal
Precipitation10.16 mm
Cooling Degree Days8.7 (Base 18.3)
Growing Degree Days17 (Base 10)
Averaged from 176 records on 1 January, 2013
WEATHER CONDITIONS BREAKOUT
WIND DIRECTION BREAKOUT
WEATHER BY HOUR - 1 JANUARY, 2013
[ °F ]   °C
Local TimeTemperatureDewpointHumidityBarometerVisibilityWind DirectionWind SpeedGust SpeedPrecipitationEventsConditions
12:16 AM26 °C25 °C94 %1009.5 hPa16.1 kmENE (60°)25.9 km/hScattered Clouds
12:18 AM26 °C25 °C94 %1009.5 hPa16.1 kmENE (60°)25.9 km/hMostly Cloudy
12:20 AM26 °C25 °C94 %1009.5 hPa16.1 kmENE (70°)25.9 km/hScattered Clouds
12:25 AM27 °C25 °C89 %1009.5 hPa16.1 kmENE (60°)31.5 km/hMostly Cloudy
12:28 AM27 °C25 °C89 %1009.5 hPa16.1 kmENE (60°)31.5 km/hScattered Clouds
12:35 AM27 °C25 °C89 %1009.5 hPa16.1 kmENE (60°)31.5 km/hMostly Cloudy
12:41 AM27 °C24 °C84 %1009.5 hPa16.1 kmENE (60°)31.5 km/hScattered Clouds
12:43 AM27 °C24 °C84 %1009.5 hPa16.1 kmENE (60°)29.6 km/hMostly Cloudy
12:55 AM26.7 °C24.5 °C88 %1009.5 hPa16.1 kmENE (60°)31.5 km/h42.6 km/hMostly Cloudy
1:26 AM27 °C24 °C84 %1009.1 hPa16.1 kmENE (60°)27.8 km/hMostly Cloudy
1:46 AM27 °C24 °C84 %1008.8 hPa16.1 kmENE (60°)33.3 km/hMostly Cloudy
1:50 AM27 °C24 °C84 %1008.8 hPa16.1 kmENE (60°)29.6 km/hMostly Cloudy
1:52 AM27 °C24 °C84 %1008.8 hPa16.1 kmENE (60°)29.6 km/hMostly Cloudy
1:55 AM26.6 °C24.3 °C87 %1008.8 hPa16.1 kmENE (60°)31.5 km/h40.7 km/hMostly Cloudy
2:08 AM27 °C24 °C84 %1008.5 hPa16.1 kmNE (50°)35.2 km/h44.4 km/hLight Drizzle
2:22 AM26 °C24 °C89 %1008.5 hPa12.9 kmENE (60°)33.3 km/h44.4 km/hOvercast
2:55 AM26.3 °C24.6 °C90 %1008.5 hPa16.1 kmENE (70°)27.8 km/h38.9 km/h1.02 mmMostly Cloudy
3:11 AM26 °C25 °C94 %1008.1 hPa14.5 kmENE (70°)24.1 km/hLight Drizzle
3:13 AM26 °C25 °C94 %1008.5 hPa12.9 kmENE (60°)31.5 km/h46.3 km/hLight Drizzle
3:15 AM26 °C25 °C94 %1008.5 hPa9.7 kmENE (60°)29.6 km/h46.3 km/hRainLight Rain
3:17 AM26 °C25 °C94 %1008.5 hPa9.7 kmENE (60°)29.6 km/h46.3 km/hRainRain
3:18 AM26 °C25 °C94 %1008.5 hPa9.7 kmENE (60°)29.6 km/h46.3 km/hRainRain
3:22 AM26 °C24 °C89 %1008.5 hPa11.3 kmENE (70°)25.9 km/h46.3 km/hRainLight Rain
3:24 AM26 °C24 °C89 %1008.5 hPa14.5 kmENE (60°)25.9 km/hRainLight Rain
3:25 AM25 °C24 °C94 %1008.5 hPa16.1 kmENE (70°)25.9 km/hMostly Cloudy
3:29 AM25 °C24 °C94 %1008.5 hPa16.1 kmENE (60°)29.6 km/hMostly Cloudy
3:52 AM26 °C25 °C94 %1008.5 hPa16.1 kmENE (60°)20.4 km/hMostly Cloudy
3:55 AM25.9 °C24.9 °C94 %1008.5 hPa16.1 kmENE (60°)22.2 km/h0.25 mmMostly Cloudy
4:02 AM26 °C25 °C94 %1008.5 hPa14.5 kmENE (60°)22.2 km/hMostly Cloudy
4:03 AM26 °C25 °C94 %1008.5 hPa14.5 kmENE (60°)22.2 km/hMostly Cloudy
4:18 AM26 °C25 °C94 %1008.5 hPa8 kmENE (70°)31.5 km/hRainLight Rain
4:22 AM26 °C25 °C94 %1008.5 hPa8 kmENE (70°)27.8 km/hLight Drizzle
4:26 AM26 °C25 °C94 %1008.5 hPa11.3 kmENE (70°)27.8 km/hLight Drizzle
4:28 AM26 °C25 °C94 %1008.5 hPa14.5 kmENE (60°)29.6 km/h40.7 km/hOvercast
4:32 AM26 °C25 °C94 %1008.8 hPa9.7 kmENE (70°)42.6 km/h51.8 km/hRainLight Rain
4:42 AM25 °C24 °C94 %1008.8 hPa14.5 kmENE (60°)31.5 km/h44.4 km/hMostly Cloudy
4:47 AM25 °C24 °C94 %1008.5 hPa16.1 kmENE (70°)33.3 km/h42.6 km/hMostly Cloudy
4:48 AM25 °C24 °C94 %1008.5 hPa16.1 kmENE (70°)31.5 km/h42.6 km/hMostly Cloudy
4:51 AM25 °C24 °C94 %1008.5 hPa16.1 kmENE (60°)31.5 km/h42.6 km/hOvercast
4:55 AM25.4 °C24.4 °C94 %1008.8 hPa16.1 kmENE (70°)27.8 km/h42.6 km/h0.25 mmOvercast
5:00 AM26 °C24 °C89 %1008.8 hPa16.1 kmENE (70°)27.8 km/hOvercast
5:02 AM25 °C24 °C94 %1008.8 hPa16.1 kmENE (70°)29.6 km/hMostly Cloudy
5:12 AM26 °C25 °C94 %1008.8 hPa16.1 kmENE (70°)31.5 km/hMostly Cloudy
5:26 AM26 °C25 °C94 %1009.1 hPa16.1 kmENE (70°)37 km/h46.3 km/hOvercast
5:55 AM26.2 °C24.7 °C91 %1009.1 hPa16.1 kmENE (70°)33.3 km/hOvercast
6:55 AM26.2 °C24.6 °C91 %1009.5 hPa16.1 kmENE (70°)31.5 km/h44.4 km/hOvercast
7:03 AM26 °C25 °C94 %1009.8 hPa16.1 kmENE (60°)24.1 km/h44.4 km/hOvercast
7:17 AM26 °C25 °C94 %1010.2 hPa16.1 kmENE (70°)29.6 km/h42.6 km/hOvercast
7:47 AM27 °C25 °C89 %1010.2 hPa4 kmENE (70°)35.2 km/hRainHeavy Rain
7:54 AM27 °C25 °C89 %1010.5 hPa4.8 kmENE (70°)31.5 km/h42.6 km/hRainLight Rain
7:55 AM26.7 °C25.2 °C91 %1010.5 hPa8 kmENE (70°)31.5 km/h42.6 km/h0.76 mmRainLight Rain
8:55 AM27.2 °C25.1 °C88 %1011.2 hPa16.1 kmEast (80°)29.6 km/h0 mmMostly Cloudy
9:27 AM27 °C25 °C89 %1011.2 hPa8 kmENE (60°)27.8 km/h40.7 km/hRainLight Rain
9:29 AM27 °C25 °C89 %1011.2 hPa6.4 kmENE (60°)31.5 km/h40.7 km/hRainLight Rain
9:36 AM27 °C26 °C94 %1011.2 hPa9.7 kmENE (60°)33.3 km/h46.3 km/hOvercast
9:51 AM27 °C25 °C89 %1011.2 hPa16.1 kmENE (70°)31.5 km/h44.4 km/hOvercast
9:52 AM27 °C25 °C89 %1011.2 hPa16.1 kmENE (70°)31.5 km/h44.4 km/hOvercast
9:55 AM27 °C25.3 °C90 %1011.2 hPa16.1 kmENE (70°)33.3 km/h44.4 km/h0.25 mmOvercast
9:58 AM27 °C25 °C89 %1011.2 hPa4 kmEast (80°)38.9 km/h51.8 km/hRainRain
9:59 AM27 °C25 °C89 %1011.2 hPa3.2 kmEast (80°)37 km/h53.8 km/hRainRain
10:00 AM27 °C25 °C89 %1011.2 hPa2.9 kmENE (70°)33.3 km/h53.8 km/hRainRain
10:07 AM27 °C26 °C94 %1011.2 hPa4 kmENE (70°)35.2 km/h53.8 km/hRainLight Rain
10:08 AM27 °C26 °C94 %1011.2 hPa6.4 kmENE (70°)35.2 km/h53.8 km/hRainLight Rain
10:10 AM27 °C26 °C94 %1011.2 hPa12.9 kmENE (70°)35.2 km/h44.4 km/hOvercast
10:14 AM27 °C26 °C94 %1011.2 hPa16.1 kmENE (70°)35.2 km/hOvercast
10:25 AM27 °C26 °C94 %1011.2 hPa16.1 kmEast (80°)31.5 km/h48.1 km/hOvercast
10:27 AM27 °C26 °C94 %1011.2 hPa16.1 kmEast (80°)31.5 km/h48.1 km/hOvercast
10:49 AM28 °C26 °C89 %1011.2 hPa16.1 kmENE (70°)27.8 km/h38.9 km/hOvercast
10:55 AM27.8 °C25.9 °C89 %1011.2 hPa16.1 kmENE (70°)35.2 km/h0.51 mmMostly Cloudy
11:19 AM27 °C25 °C89 %1010.8 hPa12.9 kmENE (70°)29.6 km/hDrizzle
11:29 AM27 °C26 °C94 %1010.5 hPa11.3 kmENE (70°)31.5 km/h37 km/hOvercast
11:37 AM28 °C26 °C89 %1010.5 hPa16.1 kmENE (70°)29.6 km/h37 km/hMostly Cloudy
11:55 AM28.4 °C25.6 °C85 %1010.2 hPa16.1 kmENE (70°)31.5 km/h40.7 km/h0.25 mmMostly Cloudy
12:22 PM28 °C25 °C84 %1010.2 hPa4.8 kmENE (70°)42.6 km/h51.8 km/hRainRain
12:23 PM28 °C25 °C84 %1010.2 hPa3.2 kmENE (70°)37 km/h51.8 km/hRainRain
12:24 PM28 °C25 °C84 %1010.2 hPa2.4 kmENE (70°)33.3 km/h51.8 km/hRainRain
12:25 PM27 °C25 °C89 %1010.2 hPa1.6 kmENE (60°)33.3 km/h51.8 km/hRainHeavy Rain
12:26 PM27 °C25 °C89 %1010.2 hPa1.3 kmENE (70°)29.6 km/h51.8 km/hRainHeavy Rain
12:28 PM26 °C25 °C94 %1010.2 hPa0.8 kmENE (60°)24.1 km/h51.8 km/hFog-RainHeavy Rain
12:31 PM26 °C25 °C94 %1010.2 hPa1.3 kmENE (60°)24.1 km/h51.8 km/hRainHeavy Rain
12:34 PM26 °C25 °C94 %1010.2 hPa1.6 kmENE (60°)25.9 km/h37 km/hRainLight Rain
12:35 PM27 °C25 °C89 %1010.2 hPa1.9 kmENE (70°)27.8 km/h37 km/hRainLight Rain
12:36 PM27 °C25 °C89 %1009.8 hPa2.9 kmENE (70°)29.6 km/h40.7 km/hRainLight Rain
12:37 PM27 °C25 °C89 %1009.8 hPa4.8 kmENE (60°)31.5 km/h40.7 km/hRainLight Rain
12:39 PM27 °C26 °C94 %1009.8 hPa12.9 kmENE (60°)29.6 km/h40.7 km/hMostly Cloudy
12:40 PM27 °C26 °C94 %1009.8 hPa14.5 kmENE (60°)25.9 km/h40.7 km/hMostly Cloudy
12:55 PM27.7 °C25.7 °C89 %1009.8 hPa16.1 kmENE (70°)29.6 km/h4.57 mmMostly Cloudy
1:04 PM28 °C26 °C89 %1009.5 hPa16.1 kmENE (70°)27.8 km/h42.6 km/hMostly Cloudy
1:07 PM28 °C25 °C84 %1009.5 hPa16.1 kmENE (70°)31.5 km/h42.6 km/hMostly Cloudy
2:22 PM28 °C26 °C89 %1008.8 hPa16.1 kmENE (70°)27.8 km/hMostly Cloudy
2:24 PM28 °C26 °C89 %1008.8 hPa16.1 kmENE (70°)24.1 km/hOvercast
2:27 PM28 °C26 °C89 %1008.8 hPa16.1 kmENE (70°)27.8 km/hOvercast
2:28 PM28 °C26 °C89 %1008.8 hPa16.1 kmENE (70°)29.6 km/hOvercast
2:29 PM28 °C26 °C89 %1008.8 hPa16.1 kmENE (60°)27.8 km/hOvercast
2:30 PM28 °C26 °C89 %1008.8 hPa16.1 kmENE (70°)27.8 km/hOvercast
2:40 PM28 °C26 °C89 %1008.8 hPa16.1 kmENE (70°)29.6 km/hOvercast
2:53 PM28 °C26 °C89 %1008.8 hPa16.1 kmENE (70°)29.6 km/h44.4 km/hOvercast
2:55 PM28.2 °C25.6 °C86 %1008.5 hPa16.1 kmENE (70°)27.8 km/h44.4 km/h0 mmMostly Cloudy
3:17 PM28 °C25 °C84 %1008.8 hPa16.1 kmEast (80°)31.5 km/h40.7 km/hMostly Cloudy
3:21 PM28 °C25 °C84 %1008.5 hPa16.1 kmEast (80°)27.8 km/h38.9 km/hMostly Cloudy
3:28 PM28 °C25 °C84 %1008.5 hPa16.1 kmEast (80°)25.9 km/hScattered Clouds
3:34 PM29 °C25 °C79 %1008.5 hPa16.1 kmEast (80°)24.1 km/hMostly Cloudy
3:36 PM29 °C25 °C79 %1008.5 hPa16.1 kmEast (80°)25.9 km/hMostly Cloudy
3:38 PM28 °C25 °C84 %1008.5 hPa16.1 kmEast (80°)24.1 km/hMostly Cloudy
3:44 PM28 °C25 °C84 %1008.5 hPa16.1 kmEast (80°)24.1 km/hMostly Cloudy
3:45 PM28 °C25 °C84 %1008.5 hPa16.1 kmEast (80°)24.1 km/hMostly Cloudy
3:55 PM27.8 °C25.1 °C85 %1008.5 hPa16.1 kmENE (70°)29.6 km/hMostly Cloudy
4:22 PM28 °C25 °C84 %1008.8 hPa6.4 kmEast (80°)35.2 km/h42.6 km/hRainLight Rain
4:24 PM28 °C25 °C84 %1008.8 hPa4 kmEast (80°)33.3 km/h42.6 km/hRainRain
4:31 PM27 °C25 °C89 %1009.1 hPa4.8 kmENE (70°)31.5 km/h44.4 km/hRainLight Rain
4:34 PM27 °C25 °C89 %1009.1 hPa14.5 kmENE (70°)33.3 km/h44.4 km/hMostly Cloudy
4:43 PM27 °C26 °C94 %1009.5 hPa16.1 kmENE (70°)25.9 km/h40.7 km/hOvercast
4:52 PM27 °C26 °C94 %1009.5 hPa16.1 kmENE (70°)24.1 km/hOvercast
4:55 PM27.1 °C25.7 °C92 %1009.5 hPa16.1 kmENE (70°)24.1 km/h0.51 mmMostly Cloudy
4:57 PM27 °C26 °C94 %1009.5 hPa16.1 kmENE (70°)24.1 km/hMostly Cloudy
5:05 PM27 °C26 °C94 %1009.5 hPa14.5 kmENE (60°)20.4 km/hOvercast
5:06 PM27 °C26 °C94 %1009.5 hPa12.9 kmENE (60°)20.4 km/hLight Drizzle
5:07 PM27 °C26 °C94 %1009.5 hPa11.3 kmENE (60°)25.9 km/h35.2 km/hLight Drizzle
5:19 PM27 °C25 °C89 %1009.5 hPa16.1 kmENE (70°)27.8 km/h40.7 km/hMostly Cloudy
5:22 PM27 °C25 °C89 %1009.5 hPa16.1 kmENE (70°)25.9 km/h40.7 km/hMostly Cloudy
5:38 PM27 °C25 °C89 %1009.5 hPa16.1 kmENE (70°)35.2 km/hMostly Cloudy
5:40 PM27 °C25 °C89 %1009.5 hPa14.5 kmENE (70°)33.3 km/hLight Drizzle
5:49 PM26 °C25 °C94 %1009.8 hPa16.1 kmENE (70°)29.6 km/hLight Drizzle
5:50 PM26 °C25 °C94 %1009.8 hPa16.1 kmEast (80°)31.5 km/hMostly Cloudy
5:51 PM26 °C25 °C94 %1009.8 hPa16.1 kmEast (80°)31.5 km/hMostly Cloudy
5:55 PM26.5 °C25.1 °C92 %1009.8 hPa12.9 kmEast (80°)25.9 km/h0 mmMostly Cloudy
5:56 PM27 °C25 °C89 %1009.8 hPa11.3 kmENE (70°)24.1 km/hRainLight Rain
6:09 PM26 °C25 °C94 %1009.8 hPa12.9 kmEast (80°)27.8 km/h48.1 km/hMostly Cloudy
6:35 PM26 °C25 °C94 %1010.2 hPa16.1 kmENE (70°)22.2 km/hMostly Cloudy
6:55 PM26.6 °C25.4 °C93 %1010.2 hPa16.1 kmEast (80°)20.4 km/h0.25 mmOvercast
6:59 PM27 °C25 °C89 %1010.5 hPa16.1 kmENE (70°)25.9 km/hOvercast
7:07 PM27 °C25 °C89 %1010.5 hPa16.1 kmENE (70°)31.5 km/hOvercast
7:20 PM27 °C25 °C89 %1010.8 hPa16.1 kmENE (70°)37 km/hRainLight Rain
7:25 PM26 °C25 °C94 %1010.8 hPa16.1 kmEast (80°)25.9 km/h48.1 km/hRainLight Rain
7:28 PM26 °C25 °C94 %1010.8 hPa16.1 kmEast (80°)25.9 km/h48.1 km/hRainLight Rain
7:29 PM26 °C25 °C94 %1010.8 hPa16.1 kmEast (80°)24.1 km/h48.1 km/hMostly Cloudy
7:32 PM26 °C25 °C94 %1010.8 hPa16.1 kmEast (80°)25.9 km/hMostly Cloudy
7:38 PM26 °C25 °C94 %1010.8 hPa16.1 kmENE (70°)24.1 km/hMostly Cloudy
7:40 PM27 °C25 °C89 %1010.8 hPa16.1 kmENE (70°)25.9 km/h35.2 km/hMostly Cloudy
7:54 PM27 °C25 °C89 %1011.2 hPa16.1 kmEast (80°)29.6 km/h42.6 km/hMostly Cloudy
7:55 PM26.6 °C25.2 °C92 %1011.2 hPa16.1 kmEast (80°)27.8 km/h42.6 km/h0 mmOvercast
7:59 PM27 °C25 °C89 %1011.2 hPa16.1 kmEast (80°)29.6 km/h42.6 km/hOvercast
8:05 PM27 °C25 °C89 %1011.2 hPa16.1 kmENE (70°)29.6 km/hOvercast
8:19 PM27 °C25 °C89 %1011.2 hPa16.1 kmENE (70°)35.2 km/hMostly Cloudy
8:21 PM27 °C25 °C89 %1011.2 hPa16.1 kmEast (80°)31.5 km/hMostly Cloudy
8:31 PM27 °C25 °C89 %1011.2 hPa16.1 kmENE (70°)33.3 km/h44.4 km/hMostly Cloudy
8:38 PM27 °C25 °C89 %1011.5 hPa16.1 kmENE (70°)35.2 km/hMostly Cloudy
8:44 PM27 °C25 °C89 %1011.5 hPa16.1 kmEast (80°)27.8 km/h38.9 km/hMostly Cloudy
8:47 PM27 °C25 °C89 %1011.5 hPa16.1 kmEast (80°)27.8 km/h38.9 km/hScattered Clouds
8:55 PM26.7 °C24.7 °C89 %1011.5 hPa16.1 kmENE (70°)27.8 km/h42.6 km/hMostly Cloudy
8:59 PM27 °C25 °C89 %1011.5 hPa16.1 kmENE (70°)31.5 km/h42.6 km/hMostly Cloudy
9:08 PM27 °C25 °C89 %1011.5 hPa16.1 kmEast (80°)27.8 km/h40.7 km/hMostly Cloudy
9:10 PM27 °C25 °C89 %1011.5 hPa16.1 kmEast (80°)29.6 km/h40.7 km/hScattered Clouds
9:19 PM27 °C25 °C89 %1011.5 hPa16.1 kmENE (70°)29.6 km/hMostly Cloudy
9:55 PM26.7 °C25 °C90 %1011.9 hPa16.1 kmENE (70°)29.6 km/hMostly Cloudy
10:11 PM27 °C25 °C89 %1011.5 hPa16.1 kmEast (80°)24.1 km/hMostly Cloudy
10:15 PM27 °C25 °C89 %1011.5 hPa16.1 kmEast (80°)27.8 km/hMostly Cloudy
10:26 PM27 °C25 °C89 %1011.5 hPa16.1 kmEast (80°)24.1 km/hMostly Cloudy
10:28 PM27 °C25 °C89 %1011.5 hPa16.1 kmENE (70°)25.9 km/hScattered Clouds
10:40 PM27 °C25 °C89 %1011.5 hPa16.1 kmENE (70°)24.1 km/hMostly Cloudy
10:55 PM26.7 °C25 °C90 %1011.5 hPa16.1 kmENE (70°)27.8 km/h37 km/hMostly Cloudy
11:06 PM26 °C25 °C94 %1011.9 hPa12.9 kmENE (60°)25.9 km/h37 km/hRainLight Rain
11:15 PM26 °C24 °C89 %1011.9 hPa12.9 kmENE (70°)27.8 km/hLight Drizzle
11:22 PM26 °C24 °C89 %1011.9 hPa8 kmEast (80°)25.9 km/hRainLight Rain
11:24 PM26 °C24 °C89 %1011.9 hPa8 kmEast (90°)27.8 km/hRainLight Rain
11:25 PM26 °C24 °C89 %1011.9 hPa6.4 kmEast (100°)29.6 km/h38.9 km/hRainLight Rain
11:30 PM26 °C24 °C89 %1011.9 hPa6.4 kmEast (90°)27.8 km/h38.9 km/hRainLight Rain
11:32 PM25 °C24 °C94 %1011.9 hPa4.8 kmEast (80°)25.9 km/h38.9 km/hRainLight Rain
11:34 PM25 °C24 °C94 %1011.9 hPa4 kmEast (80°)25.9 km/h38.9 km/hRainRain
11:35 PM25 °C24 °C94 %1011.9 hPa4 kmEast (80°)25.9 km/h38.9 km/hRainRain
11:36 PM25 °C24 °C94 %1011.9 hPa4.8 kmEast (80°)24.1 km/hRainRain
11:37 PM25 °C24 °C94 %1011.9 hPa4.8 kmEast (90°)22.2 km/hRainRain
11:39 PM25 °C24 °C94 %1011.5 hPa6.4 kmEast (80°)18.5 km/hRainLight Rain
11:45 PM25 °C24 °C94 %1011.5 hPa16.1 kmEast (80°)18.5 km/hScattered Clouds
11:55 PM25.4 °C24.3 °C94 %1011.9 hPa16.1 kmEast (80°)18.5 km/h1.52 mmPartly Cloudy
11:58 PM25 °C24 °C94 %1011.9 hPa16.1 kmEast (80°)18.5 km/hScattered Clouds
Hourly data recorded from PGUA, located 0 kilometers away from Tamuning, Guam







STORIES FROM OUR PARTNERS